Retour au catalogue

PROSPERO

BLACK ARROW

ActifSciencePO
NORAD 5580·PAYLOAD·🇬🇧 United Kingdom

Lancé Oct 28, 1971 depuis Woomera Range Complex

Loading…

Prochains Passages (prochaines 24 heures)

TLE

FraisSource: Space-Track

Époque: Sep 14, 2026, 07:28 UTC

1 05580U 71093A   26257.31141714  .00001247  00000-0  26498-3 0  9998
2 05580  82.0385 212.5899 0499882 331.7224  25.7604 14.01844152761013

Suivez PROSPERO en temps réel avec AllMySat

Download on the App Store